{"data":{"norad_id":57450,"intl_designator":"2023-105W","name":"STARLINK-30217","alt_names":[],"object_type":"PAYLOAD","status":"ACTIVE","operator":null,"country":"US","launch_date":"2023-07-24","launch_site_code":"AFETR","launch_vehicle":null,"mission":null,"orbit_class":"UNKNOWN","rcs_meters":null,"size_class":null,"mass_kg":null,"dimensions":null,"purposes":["comms"],"wikipedia_slug":null,"has_3d_model":false,"image_url":null,"decayed_at":null,"tle_current":{"epoch":"2026-09-20T14:52:39.641664Z","epoch_age_seconds":117679,"freshness":"FRESH","line1":"1 57450U 23105W   26263.61990326  .00000189  00000+0  16389-4 0  9995","line2":"2 57450  43.0041 228.0233 0001525 262.2669  97.8010 15.27580416175525","mean_motion":15.27580416,"eccentricity":0.0001525,"inclination_deg":43.0041,"raan_deg":228.0233,"arg_perigee_deg":262.2669,"mean_anomaly_deg":97.801,"bstar":1.6389e-5,"rev_number":17552,"period_min":94.266723042357,"perigee_km":482.0015196966,"apogee_km":484.09418107596,"semimajor_km":6861.1848503863,"source":"CELESTRAK","updated_at":"2026-09-21T09:00:33.628399Z"}}}